{"data":{"norad_id":53602,"intl_designator":"2022-104Q","name":"STARLINK-4648","alt_names":[],"object_type":"PAYLOAD","status":"ACTIVE","operator":null,"country":"US","launch_date":"2022-08-28","launch_site_code":"AFETR","launch_vehicle":null,"mission":null,"orbit_class":"UNKNOWN","rcs_meters":null,"size_class":null,"mass_kg":null,"dimensions":null,"purposes":["comms"],"wikipedia_slug":null,"has_3d_model":false,"image_url":null,"decayed_at":null,"tle_current":{"epoch":"2026-05-24T17:13:37.685856Z","epoch_age_seconds":96094,"freshness":"FRESH","line1":"1 53602U 22104Q   26144.71779729  .00000548  00000+0  52505-4 0  9998","line2":"2 53602  53.2157 257.7563 0001329  88.3903 271.7241 15.08840382207161","mean_motion":15.08840382,"eccentricity":0.0001329,"inclination_deg":53.2157,"raan_deg":257.7563,"arg_perigee_deg":88.3903,"mean_anomaly_deg":271.7241,"bstar":5.2505e-5,"rev_number":20716,"period_min":95.437530515405,"perigee_km":538.82283519466,"apogee_km":540.66160749169,"semimajor_km":6917.8792213432,"source":"CELESTRAK","updated_at":"2026-05-25T13:38:17.475888Z"}}}